Preview of NWS' New Version of Forecast
This preview is not operational and should not be used for support decisions.

Regional Weather Roundup (RWR)

Issued by National Weather Service (NWS)

                            
000
ASUS45 KABQ 180710
RWRNM 
NEW MEXICO REGIONAL WEATHER ROUNDUP
NATIONAL WEATHER SERVICE ALBUQUERQUE NM
1200 AM MST MON FEB 18 2019

NOTE: "FAIR" MEANS FEW OR NO CLOUDS BELOW 12,000 FEET AGL WITH NO
       SIGNIFICANT WEATHER OR OBSTRUCTIONS TO VISION.

      THIS PRODUCT IS RELEASED AS TWO VERSIONS.  ONE VERSION NEAR
      THE TOP OF THE HOUR CONTAINING PRELIMINARY DATA FROM ALBUQUERQUE
      AND OTHER STATIONS.  A FINAL VERSION WITH ADDITIONAL DATA IS 
      ISSUED ABOUT 10 MINUTES AFTER THE HOUR.
 
NMZ501-503-504-510>518-180800-
NORTHWEST PLATEAU/NORTHCENTRAL MOUNTAINS
  
CITY           SKY/WX    TMP DP  RH WIND       PRES   REMARKS
FARMINGTON     LGT SNOW  27  25  92 W3        29.87S FOG              
LOS ALAMOS     FAIR      22  22 100 SW6       29.91R WCI  14          
SANTA FE       FAIR      22  21  96 SE3       29.92S                  
TAOS           LGT SNOW  25  21  86 S9        29.92R FOG     WCI  15  
ANGEL FIRE     LGT SNOW  15  12  90 S9        29.88R WCI   3          

$$
NMZ402-403-502-505>509-180800-
WESTCENTRAL MOUNTAINS/SOUTHWEST MOUNTAINS
  
CITY           SKY/WX    TMP DP  RH WIND       PRES   REMARKS
GALLUP         LGT SNOW  24  21  88 SW10      29.88F FOG     WCI  14  
GRANTS         MOCLDY    23  21  89 SE3       29.93S                  
SILVER CITY    FAIR      24  17  75 N9        29.97S WCI  14          

$$
NMZ407-409-411-412-180800-
SOUTHERN DESERTS
  
CITY           SKY/WX    TMP DP  RH WIND       PRES   REMARKS
DEMING         FAIR      30  14  51 SW9       29.99R WCI  22          
LAS CRUCES     FAIR      34  11  39 SW5       30.00R WCI  30          
HOLLOMAN AFB   FAIR      33   6  32 CALM      30.00R                  
ALAMOGORDO     FAIR      34   9  35 MISG      29.99R                  
T OR C         FAIR      35  13  40 W3        29.96R                  

$$
NMZ519>523-180800-
CENTRAL VALLEYS/CENTRAL HIGHLANDS
  
CITY           SKY/WX    TMP DP  RH WIND       PRES   REMARKS
ALBUQUERQUE    FAIR      32  19  58 SW8       29.96R WCI  25          
DOUBLE EAGLE   FAIR      27  18  68 W15       29.94S WCI  15          
MORIARTY ARPT  FAIR      21  21  98 N5        29.95R WCI  15          
CLINES CORNERS FAIR      20  16  84 NW10      29.92R WCI   9          
BELEN          FAIR      28  13  52 SW6       29.96R WCI  22          
SOCORRO        FAIR      37  12  36 CALM      29.97R                  

$$
NMZ524>526-539-540-180800-
SOUTHCENTRAL MOUNTAINS
  
CITY           SKY/WX    TMP DP  RH WIND       PRES   REMARKS
RUIDOSO        NOT AVBL                                               

$$
NMZ527>531-180800-
NORTHEAST HIGHLANDS/NORTHEAST PLAINS
  
CITY           SKY/WX    TMP DP  RH WIND       PRES   REMARKS
LAS VEGAS      FAIR      21  14  74 SW5       29.91R WCI  15          
RATON          MOCLDY    25  14  63 E8        29.91R WCI  16          
CLAYTON        HVY SNOW  18  15  88 NE16      30.04R VSB 1/4 WCI   3  

$$
NMZ532>537-180800-
EASTCENTRAL PLAINS
  
CITY           SKY/WX    TMP DP  RH WIND       PRES   REMARKS
SANTA ROSA     FAIR      27   8  44 SW6       29.95R WCI  21          
TUCUMCARI      MOCLDY    38  19  46 SE18G30   29.96R WCI  28          
CANNON AFB     FAIR      32  17  55 E16       30.00R WCI  21          
CLOVIS AIRPORT FAIR      31  19  61 E15       30.02R WCI  20          

$$
NMZ028-029-538-180800-
SOUTHEAST PLAINS
  
CITY           SKY/WX    TMP DP  RH WIND       PRES   REMARKS
ROSWELL        FAIR      34   5  29 W7        29.95R WCI  28          
ARTESIA        FAIR      32   1  27 NW5       29.98R WCI  27          
CARLSBAD       FAIR      37  10  32 S9        29.97R WCI  30          
HOBBS          FAIR      32  19  59 E3        30.02R                  


$$